Regional Weather Roundup
Issued by NWS

Home | Current Version | Previous Version | Graphics & Text | Print | Product List | Glossary Off
Versions: 1 2 3 4 5 6 7 8 9 10 11 12 13 14 15 16 17 18 19 20 21 22 23 24 25 26 27 28 29 30 31 32 33 34 35 36 37 38 39 40 41 42 43 44 45 46 47 48 49 50

000
ASUS43 KFSD 251910
RWRSD

WEATHER ROUNDUP FOR SOUTH DAKOTA
NATIONAL WEATHER SERVICE SIOUX FALLS SD
200 PM CDT SAT OCT 25 2014

NOTE: "FAIR" INDICATES FEW OR NO CLOUDS BELOW 12,000 FEET WITH NO
SIGNIFICANT WEATHER AND/OR OBSTRUCTIONS TO VISIBILITY.


SDZ001>005-009-010-012>017-252000-
NORTHWEST AND NORTH CENTRAL SOUTH DAKOTA

CITY           SKY/WX    TMP DP  RH WIND       PRES   REMARKS
BUFFALO          N/A     64  31  28 SE15G25   29.99F
FAITH            N/A     63  30  28 SE16      30.09F
MOBRIDGE       SUNNY     63  29  27 S7        30.10F
$$

SDZ012>016-024>037-041>051-057-063-072>074-252000-
SOUTHWEST AND SOUTH CENTRAL SOUTH DAKOTA

CITY           SKY/WX    TMP DP  RH WIND       PRES   REMARKS
RAPID CTY ARPT SUNNY     64  33  31 S18       30.08F
PIERRE         SUNNY     65  29  25 MISG      30.11F
CUSTER         SUNNY     65  30  27 W8        30.13F
ELLSWORTH AFB  SUNNY     64  31  29 S21       30.06F
PHILIP         SUNNY     65  32  29 SE13      30.10F
PINE RIDGE     SUNNY     65  39  38 SE8       30.10F
SPEARFISH      FAIR      63  39  42 NE5       30.07F
WINNER         FAIR      69  27  20 E9        30.12F
$$

SDZ004>011-016>023-039-040-252000-
NORTHEAST SOUTH DAKOTA

CITY           SKY/WX    TMP DP  RH WIND       PRES   REMARKS
ABERDEEN       SUNNY     64  31  28 VRB3      30.14F
WATERTOWN      SUNNY     63  28  26 N12       30.12F
SISSETON         N/A     63  29  27 N13G18    30.11F
$$

SDZ017-020-022-023-036>040-048>070-252000-
SOUTHEAST SOUTH DAKOTA

CITY           SKY/WX    TMP DP  RH WIND       PRES   REMARKS
SIOUX FALLS    SUNNY     66  35  31 NE6       30.12F
HURON          SUNNY     66  28  24 VRB5      30.13F
CHAMBERLAIN    SUNNY     66  30  25 SE5       30.12F
MITCHELL       SUNNY     66  31  27 E3        30.14F
YANKTON        SUNNY     66  34  30 CALM      30.13F
$$

ABBREVIATIONS USED IN REMARKS
   TC - TEMPERATURE IN CELSIUS
  WCI - WIND CHILL INDEX
   HX - HEAT INDEX
  VSB - VISIBILITY




USA.gov is the U.S. government's official web portal to all federal, state and local government web resources and services.